This is the latest recevied weather packets stored in our database for station/object N5VIS. If no packets are shown the sender has not sent any weather packets the latest 1 day(s).
| Time | Temp. | Humidity | Pressure | Rain* | Wind** | Luminosity | Snow |
|---|---|---|---|---|---|---|---|
| 1778093272 | 27.22° C | 84% | 1016.4 hPa | 0 mm | - | - | - |
| 1778092666 | 26.67° C | 85% | 1016.3 hPa | 0 mm | - | - | - |
| 1778092064 | 26.67° C | 84% | 1016.7 hPa | 0 mm | - | - | - |
| 1778091459 | - | - | - | 0 mm | - | - | - |
| 1778091157 | 27.22° C | 83% | 1016.4 hPa | 0 mm | - | - | - |
| 1778089040 | 27.22° C | 83% | 1016.7 hPa | 0 mm | - | - | - |
| 1778087525 | 26.11° C | 85% | 1016.7 hPa | 0 mm | - | - | - |
| 1778087222 | 26.11° C | 86% | 1016.8 hPa | 0 mm | - | - | - |
| 1778086617 | 26.11° C | 86% | 1016.8 hPa | 0 mm | - | - | - |
| 1778086313 | 26.11° C | 85% | 1016.8 hPa | 0 mm | - | - | - |
| 1778085404 | 26.11° C | 85% | 1016.7 hPa | 0 mm | - | - | - |
| 1778085099 | 26.11° C | 85% | 1016.7 hPa | 0 mm | - | - | - |
| 1778083887 | 26.11° C | 87% | 1016.8 hPa | 0 mm | - | - | - |
| 1778082980 | 25.56° C | 88% | 1016.9 hPa | 0 mm | - | - | - |
| 1778082677 | 25.56° C | 87% | 1016.7 hPa | 0 mm | - | - | - |
| 1778080933 | 25.56° C | 89% | 1016.4 hPa | 0 mm | - | - | - |
| 1778080328 | 25° C | 89% | 1016.6 hPa | 0 mm | - | - | - |
| 1778079115 | 25° C | 90% | 1016.3 hPa | 0 mm | - | - | - |
| 1778078813 | 25° C | 90% | 1016.2 hPa | 0 mm | - | - | - |
| 1778078207 | 25° C | 89% | 1016.2 hPa | 0 mm | - | - | - |
| 1778077905 | 25° C | 90% | 1016.1 hPa | 0 mm | - | - | - |
| 1778076998 | 25° C | 90% | 1015.9 hPa | 0 mm | - | - | - |
| 1778074876 | 25° C | 89% | 1015.6 hPa | 0 mm | - | - | - |
| 1778073968 | 25.56° C | 88% | 1015.5 hPa | 0 mm | - | - | - |
| 1778073362 | 25° C | 89% | 1015.5 hPa | 0 mm | - | - | - |
* Rain latest hour (hover to see other rain measurements)
** Current wind speed in m/s (hover to see current wind gust speed)